Southwest Georgia Regional Airport
KABY : now visible

Airfield :











YOU CAN JOIN US ON...

 
LOGIN :

Register | Disclaimer

   EN    FR    IT 

 









Legend :    VFR   Marginal VFR   IFR   Intensive IFR   Very Intensive IFR
Visi :
Ceiling :
>= 8 km
>= 3000ft
5 to 8 km
1000 to 3000 ft
1500m to 5 km
500 to 1000 ft
800 to 1500m
200 to 500 ft
< 800m
< 200 ft
Symbols :   Thunderstorms  Fog  Heavy snow  Heavy precipitations  Wind > 20 kt







- Airport Elevation : 197 ft
- IATA code : ABY


KABY - Southwest Georgia Regional

CURRENT METAR :
  • 210553Z AUTO 15004KT 10SM CLR 24/23 A3007 RMK AO2 SLP180 60000 T02390228 10294 20239 58004

EXPIRED METARs :
  • 210453Z AUTO 00000KT 10SM CLR 24/23 A3007 RMK AO2 SLP181 T02440228 403280217
  • 210353Z AUTO 00000KT 10SM CLR 25/23 A3008 RMK AO2 SLP185 T02500233

TAF KABY
Valid from the 21 at 06:00 until the 22 at 06:00 UTC


210535Z 2106/2206 VRB03KT P6SM SKC
FM210900 00000KT 3SM BR SCT003 BKN015
FM211300 22008KT P6SM BKN050
FM220000 VRB04KT P6SM SCT250
KZJX FIR / North America



MET'MAP, your aeronautical weather chart ! - Copyright ORBIFLY December 2007 - Disclaimer

ORBIFLY MET'MAP TEAM :

Programming & Development : Alexandra Zaïnal
Concept & Development : Baudouin d'Aumeries
Co-Development & Prog : Marc-Olivier Méhu
Technical & hardware support : Manuel Goepfert

Contact : metmap@orbifly.com




SOURCES & CREDITS :

   NOAA       Earth
Advisory